SCP
0 0 0 0 0 0 0 0 0 -0 -0 -0 -0 0 -0 0 -0 -0 -0 -0 0 0 0 0 0 -0 -0 -0 -0 0 0 0 0 0 0 -0 -0 -0 -0 -0 -0 -0 -0 -0 -0 -0 -0 -0 -0
0 0 0 0 0 0 0 0 0 0 -0 -0 -0 0 -0 -0 0 -0 -0 0 0 0 0 0 0 0 0 0 0 -0 0 0 0 0 0 0 0 -0 -0 -0 -0 -0 -0 -0 -0 -0 -0 -0 -0
0 0 0 0 0 0 0 0 0 0 -0 -0 -0 0 0 -0 0 -0 -0 0 0 0 -0 -0 0 0 0 0 -0 -0 0 0 0 0 -0 -0 0 -0 -0 -0 -0 0 -0 -0 -0 -0 -0 -0 -0
0 0 0 0 0 0 0 0 0 0 -0 -0 0 -0 0 0 0 -0 -0 -0 0 0 -0 -0 0 0 0 0 -0 -0 -0 -0 0 0 0 -0 -0 -0 -0 -0 -0 0 -0 -0 -0 -0 -0 -0 -0
0 0 0 0 0 0 0 0 0 -0 0 -0 -0 -0 -0 0 0 -0 -0 -0 -0 0 0 0 0 0 0 0 0 -0 -0 -0 -0 0 0 0 -0 -0 -0 -0 -0 -0 -0 -0 -0 -0 -0 -0 -0
0 0 0 0 0 0 0 0 0 0 0 0 0 -0 -0 0 0 -0 -0 0 -0 -0 -0 -0 0 0 0 0 -0 -0 0 -0 -0 -0 0 -0 -0 -0 -0 -0 -0 -0 -0 -0 -0 -0 -0 0 0
0 0 0 0 0 0 0 0 0 0 0 0 0 -0 0 -0 -0 -0 -0 0 0 -0 0 0 -0 -0 -0 -0 -0 -0 -0 -0 -0 -0 -0 -0 -0 -0 -0 -0 -0 -0 -0 0 0 -0 -0 -0 0
0 0 0 0 0 0 0 0 0 0 0 0 0 0 0 -0 -0 -0 -0 -0 0 -0 0 -0 -0 -0 -0 -0 -0 -0 -0 -0 -0 -0 -0 -0 -0 0 0 0 -0 0 0 0 0 0 0 0 0
0 0 0 0 0 0 0 0 0 0 0 0 0 0 0 -0 -0 -0 -0 -0 -0 0 -0 0 -0 -0 -0 -0 -0 -0 -0 -0 -0 -0 -0 -0 -0 -0 0 -0 -0 0 0 0 0 0 0 0 0
0 0 0 0 0 0 0 0 0 0 0 0 0 0 0 -0 -0 -0 -0 -0 -0 -0 -0 -0 -0 -0 -0 -0 -0 -0 -0 -0 -0 -0 -0 -0 -0 -0 -0 -0 -0 0 0 0 0 0 0 0 0
0 0 0 0 0 0 0 0 0 0 0 0 0 0 0 0 -0 -0 -0 -0 -0 -0 -0 -0 0 -0 -0 -0 -0 -0 -0 -0 -0 -0 -0 -0 -0 -0 0 0 0 0 0 0 0 0 0 0 0
0 0 0 0 0 0 0 0 0 0 0 0 0 0 0 0 0 -0 -0 -0 -0 -0 -0 -0 -0 -0 -0 -0 -0 -0 0 -0 -0 -0 -0 -0 -0 0 0 0 0 0 0 0 0 0 0 0 0
0 0 0 0 0 0 0 0 0 0 0 0 0 0 0 0 0 0 0 0 0 -0 -0 -0 -0 -0 0 -0 -0 0 0 0 -0 -0 -0 -0 0 0 0 0 0 0 0 0 0 0 0 0 0
0 0 0 0 0 0 0 0 0 0 0 0 0 0 0 0 0 0 0 0 0 0 0 -0 -0 -0 0 0 0 0 0 0 0 0 0 -0 0 0 0 0 0 0 0 0 0 0 0 0 0
0 0 0 0 0 0 0 0 0 0 0 0 0 0 0 0 0 0 0 0 0 0 0 0 0 0 0 0 0 0 0 0 0 0 0 0 0 0 0 0 0 0 0 0 0 0 0 0 0
0 0 0 0 0 0 0 0 0 0 0 0 0 0 0 0 0 0 0 0 0 0 0 0 0 0 0 0 0 0 0 0 0 0 0 0 0 0 0 0 0 0 0 0 0 0 0 0 0
0 0 0 0 0 0 0 0 0 0 0 0 0 0 0 0 0 0 0 0 0 0 0 0 0 0 0 0 0 0 0 0 0 0 0 0 0 0 0 0 0 0 0 0 0 0 0 0 0
0 0 0 0 0 0 0 0 0 0 0 0 0 0 0 0 0 0 0 0 0 0 0 0 0 0 0 0 0 0 0 0 0 0 0 0 0 0 0 0 0 0 0 0 0 0 0 0 0
0 0 0 0 0 0 0 0 0 0 0 0 0 0 0 0 0 0 0 0 0 0 0 0 0 0 0 0 0 0 0 0 0 0 0 0 0 0 0 0 0 0 0 0 0 0 0 0 0
0 0 0 0 0 0 0 0 0 0 0 0 0 0 0 0 0 0 0 0 0 0 0 0 0 0 0 0 0 0 0 0 0 0 0 0 0 0 0 0 0 0 0 0 0 0 0 0 0
0 0 0 0 0 0 0 0 0 0 0 0 0 0 0 0 0 0 0 0 0 0 0 0 0 0 0 0 0 0 0 0 0 0 0 0 0 0 0 0 0 0 0 0 0 0 0 0 0
0 0 0 0 0 0 0 0 0 0 0 0 0 0 -0 0 0 0 0 0 0 0 0 0 0 0 0 0 0 0 0 0 0 0 0 0 0 0 0 0 0 0 0 0 0 0 0 0 0
0 0 0 0 0 0 0 0 0 0 0 -0 0 -0 0 -0 0 0 0 0 0 0 0 0 0 0 0 0 0 0 0 0 0 0 0 0 0 0 0 0 0 0 0 0 0 0 0 0 0
0 0 0 0 0 0 0 0 -0 0 0 0 0 0 0 -0 0 0 0 0 0 0 0 0 0 0 0 0 0 0 0 0 0 0 1 0 0 0 0 0 0 0 0 0 0 0 0 0 0
0 0 0 0 0 0 0 0 0 0 0 0 0 0 0 0 -0 0 0 0 0 0 0 0 0 0 0 0 0 0 0 0 0 0 0 0 0 0 0 0 0 0 0 0 0 0 0 0 0
0 0 0 0 0 0 0 0 0 0 0 0 0 0 0 0 0 0 0 0 0 0 0 0 0 0 0 0 0 0 0 0 0 0 0 0 0 0 0 0 0 0 0 0 0 0 0 0 0
0 0 0 0 0 0 0 0 0 0 0 0 0 0 0 0 0 0 0 0 0 0 0 0 0 0 0 0 0 0 0 0 0 0 0 0 0 0 0 0 0 0 0 0 0 0 0 0 0
0 0 0 0 0 0 0 0 0 0 0 0 0 0 0 0 0 0 0 0 0 0 0 0 0 0 0 0 0 0 0 0 0 0 0 0 0 0 0 0 0 0 0 0 0 0 0 0 0
0 0 0 0 0 0 0 0 0 0 0 0 0 0 0 0 0 0 0 0 0 0 0 0 0 0 0 0 0 0 0 0 0 0 0 0 0 0 0 0 0 0 0 0 0 0 0 0 0
0 0 0 0 0 0 0 0 0 0 0 0 0 0 0 0 0 0 0 0 0 0 0 0 0 0 0 0 0 0 0 0 0 0 0 0 0 0 0 0 0 0 0 0 0 0 0 0 0
Wind_Speed_500mb
17 21 21 9 12 8 8 8 6 12 13 9 12 7 18 22 17 11 32 24 30 25 20 20 15 21 18 14 15 18 20 20 19 19 23 24 25 23 21 17 15 19 22 25 25 23 21 21 20
13 16 11 11 11 12 13 16 16 13 15 13 7 3 4 20 15 31 29 31 28 25 22 23 22 24 20 16 18 19 22 24 27 31 27 21 23 23 20 14 13 20 25 28 29 28 28 27 25
10 10 12 8 9 8 7 14 21 16 16 17 6 6 6 9 23 31 27 36 30 26 23 26 26 24 22 22 24 23 27 30 32 31 30 27 23 18 17 15 16 23 26 28 29 29 29 28 26
7 9 9 13 8 7 9 14 24 23 10 10 3 12 12 11 27 18 41 36 32 28 25 27 25 23 21 21 24 24 25 26 23 21 23 24 25 20 16 13 11 22 25 25 26 27 28 27 27
9 10 11 11 9 4 5 5 21 20 17 18 10 12 12 24 15 35 37 34 33 30 28 27 24 22 21 21 22 23 29 29 27 26 22 22 19 16 14 17 16 19 24 23 25 26 28 28 28
20 10 9 17 15 8 7 15 24 20 18 14 11 15 15 23 29 37 36 33 31 31 29 27 24 23 21 21 22 25 26 25 24 25 23 22 17 16 12 18 19 20 21 21 23 24 26 27 26
24 17 24 19 13 12 9 15 25 24 17 15 6 14 12 30 36 37 34 30 30 26 29 27 26 24 23 22 20 22 23 22 20 18 16 17 16 13 14 17 17 19 19 20 20 20 22 24 24
19 12 28 20 19 14 15 21 19 26 17 11 11 10 12 41 46 42 34 31 29 27 27 25 24 23 22 23 21 19 19 17 17 15 13 12 11 7 6 8 14 16 15 16 16 16 18 20 21
18 13 21 27 23 11 15 20 16 15 9 15 14 1 12 46 50 44 37 34 32 38 33 30 24 22 20 21 21 19 16 15 13 13 12 10 9 9 4 4 9 11 11 12 13 13 14 15 17
22 22 27 16 18 9 16 22 25 16 22 20 17 11 31 43 54 49 46 44 45 43 42 32 29 25 23 20 19 18 16 13 11 10 10 8 7 5 4 4 5 5 6 7 9 10 10 13 11
13 26 18 20 14 9 13 19 19 22 23 27 33 29 38 45 53 49 46 42 44 39 43 42 37 27 26 24 22 18 18 15 12 9 8 6 5 4 2 3 2 2 2 4 5 7 7 6 6
17 29 20 16 18 13 16 11 21 32 15 13 20 35 40 46 54 51 46 41 41 42 42 43 40 37 30 28 24 19 19 17 14 12 10 8 6 5 3 1 2 3 3 3 4 4 5 6 5
11 18 20 13 18 15 8 22 29 36 40 15 19 37 41 40 44 44 43 40 40 41 44 46 44 40 36 31 28 24 22 21 19 17 14 12 10 9 8 6 5 4 6 7 7 7 8 9 9
24 18 20 18 20 15 13 20 8 29 33 23 27 36 37 39 43 42 45 47 44 42 42 44 46 42 40 36 33 29 26 24 24 22 20 18 16 13 12 12 10 9 7 8 9 10 11 13 14
13 20 15 20 25 14 19 20 24 32 30 36 34 35 36 37 40 47 45 47 47 45 43 47 47 45 40 39 38 36 33 30 28 27 26 25 22 21 19 17 16 16 13 12 12 12 13 15 16
16 17 17 25 29 14 20 29 40 38 34 43 40 39 40 40 43 42 42 44 45 44 47 50 49 49 45 41 39 40 39 36 33 32 32 31 29 29 27 24 21 22 19 16 14 16 17 18 18
26 21 29 21 35 13 25 21 39 31 39 40 44 43 40 37 40 42 43 43 46 48 51 52 53 52 48 44 41 40 42 41 40 37 38 36 35 34 33 29 24 26 26 21 22 23 23 22 24
28 13 36 34 26 26 26 32 13 22 36 44 41 40 40 40 43 43 44 43 43 46 49 53 54 51 50 48 44 42 43 42 43 43 44 39 40 37 34 33 28 30 31 28 24 24 24 24 26
28 40 33 30 18 27 35 32 34 23 29 37 43 43 42 44 39 41 46 45 43 46 50 51 53 52 50 51 50 48 47 44 40 38 38 35 38 37 37 38 35 34 33 32 30 30 29 29 27
38 37 34 9 14 20 25 36 34 33 30 41 43 44 46 42 44 47 48 53 53 50 53 54 50 47 53 52 51 46 45 43 40 38 36 34 33 35 37 35 35 34 35 37 35 35 37 36 34
20 41 30 19 17 16 9 28 33 37 36 35 37 43 46 48 51 48 50 53 55 58 57 58 55 53 54 54 49 47 44 41 39 41 41 39 36 38 36 32 35 35 38 41 40 40 40 41 43
33 16 18 22 24 14 24 12 28 42 44 36 50 51 51 48 43 42 49 56 59 60 60 58 56 55 55 55 57 53 55 53 49 43 42 43 37 38 39 40 40 41 43 45 43 41 42 43 45
19 22 14 25 21 6 16 11 24 21 43 46 51 56 57 53 48 48 48 50 54 54 59 58 57 58 56 58 58 58 55 52 40 36 38 39 38 38 38 42 43 42 39 39 39 41 41 45 47
26 36 24 11 8 14 30 24 18 20 37 38 49 63 64 59 52 46 40 48 53 57 58 59 60 60 60 59 58 58 53 52 47 46 48 51 48 47 47 47 46 45 46 44 40 43 45 43 45
23 39 11 11 13 15 4 26 27 15 27 32 33 59 63 59 55 46 53 56 52 54 55 58 64 66 65 62 61 61 61 61 59 58 55 55 54 51 53 48 50 52 51 48 48 47 48 47 47
42 35 14 15 13 14 2 16 12 31 44 35 24 15 21 34 34 46 54 54 55 58 60 61 65 65 66 65 62 57 56 59 61 61 57 55 54 50 51 50 52 54 57 55 53 51 48 49 46
37 40 10 12 5 4 13 15 17 21 21 21 27 22 17 20 30 34 34 36 41 45 52 58 61 59 57 54 52 54 55 56 59 58 56 55 55 53 51 47 52 55 56 58 51 49 47 48 46
29 25 13 7 14 11 11 9 15 17 16 16 20 29 33 28 23 21 26 32 34 37 41 42 43 45 49 49 48 47 44 44 46 47 47 46 46 49 46 41 46 47 46 50 52 53 46 46 41
26 30 17 16 5 5 8 8 6 8 10 18 17 24 32 36 31 27 28 29 29 29 30 32 36 36 35 34 33 33 34 35 36 38 40 42 45 48 46 47 43 45 49 47 46 39 40 43 43
39 38 33 12 9 1 1 4 5 5 8 15 15 10 16 27 27 25 28 31 34 34 34 33 31 31 32 30 30 30 29 28 29 31 32 33 33 34 34 35 37 34 29 34 40 39 40 41 42
Wind_Direction_500mb
329 338 336 304 251 254 127 142 85 128 141 73 98 309 50 27 6 69 139 137 135 137 126 109 111 120 111 102 110 135 142 139 121 96 94 97 102 100 95 83 81 91 86 80 74 70 68 67 67
325 334 315 281 264 224 131 132 149 143 81 131 112 142 90 76 64 128 135 143 139 133 131 117 117 118 107 83 98 118 132 132 123 108 103 92 93 98 96 89 76 86 83 78 72 70 72 73 74
307 326 285 295 265 285 110 172 135 125 138 156 137 15 39 69 117 131 155 145 138 135 134 125 126 125 109 93 90 106 122 133 135 131 122 110 101 103 113 100 79 90 88 78 73 71 70 69 71
284 238 231 250 235 69 17 161 140 142 161 174 251 115 91 100 136 146 146 146 142 139 135 129 133 127 118 102 99 104 108 133 138 135 133 127 118 111 103 105 101 85 87 84 76 70 66 68 75
243 251 254 240 218 151 143 160 160 172 160 171 187 121 106 135 141 145 149 148 146 145 142 135 136 130 121 110 101 106 110 112 113 121 136 142 133 120 100 108 109 95 85 79 73 67 62 67 74
224 245 228 237 195 152 171 179 183 184 165 153 194 143 128 157 150 153 156 155 151 155 148 142 141 138 127 116 108 103 108 109 105 97 101 123 145 118 90 105 107 96 91 79 70 64 60 66 70
239 217 226 227 238 193 188 188 195 188 184 183 148 171 140 169 169 158 159 160 155 167 153 151 148 147 138 130 122 112 114 114 108 105 99 94 97 115 98 95 111 101 90 78 70 67 63 64 66
243 256 239 219 207 213 151 180 204 200 181 131 172 184 178 178 175 158 163 163 164 172 160 155 159 154 150 144 139 129 124 117 110 108 104 100 97 96 93 97 106 98 88 79 71 68 65 65 63
203 231 223 219 225 198 162 187 192 196 168 188 188 99 114 174 176 162 170 168 172 181 170 167 168 162 164 160 153 149 138 131 125 118 113 106 92 94 110 95 88 89 80 71 65 61 62 64 62
212 222 225 220 218 200 182 207 176 186 190 199 185 162 155 179 180 174 177 178 191 186 178 180 169 174 174 173 167 163 158 154 146 136 125 123 130 127 70 67 71 72 61 54 48 51 53 51 47
209 231 220 198 206 185 194 207 190 210 205 208 201 176 169 178 185 186 186 191 193 192 192 188 181 186 184 183 177 183 179 179 173 169 156 151 158 144 72 62 70 67 8 10 15 26 34 35 39
216 234 198 179 178 173 193 205 205 212 205 207 207 188 178 189 193 193 193 193 191 197 203 200 197 192 192 197 187 196 196 195 196 196 195 186 191 187 193 251 315 329 335 314 310 320 334 353 356
236 190 208 181 176 196 193 217 223 216 222 224 185 182 190 196 198 198 198 198 197 199 203 208 206 205 208 207 200 205 206 208 212 217 216 219 217 218 223 238 259 281 298 303 303 299 303 313 322
216 195 194 188 187 183 209 230 220 228 223 206 184 192 197 198 198 198 202 202 203 201 205 211 211 212 213 216 215 217 217 218 226 230 231 230 235 239 242 246 252 258 271 281 286 293 302 311 312
241 196 200 189 205 208 198 228 229 234 208 203 198 196 199 203 201 204 207 207 204 204 204 212 215 213 221 222 224 224 228 230 231 238 239 241 243 250 252 257 261 263 264 274 286 293 301 306 309
222 208 195 207 198 198 185 244 226 226 200 205 202 200 201 203 207 207 207 210 207 206 205 213 215 217 221 227 232 233 235 237 241 242 245 246 247 249 251 253 258 261 262 267 282 299 305 306 305
211 197 201 169 201 162 199 237 239 216 207 215 207 203 206 208 209 208 208 209 204 208 206 212 217 219 223 225 232 239 237 239 242 245 249 252 254 250 249 250 253 267 268 272 277 284 292 292 296
186 214 199 207 193 201 194 231 182 202 213 218 209 208 211 214 214 209 207 206 206 206 209 212 218 220 224 225 227 230 239 240 241 244 249 250 251 253 252 248 258 262 261 268 275 281 285 291 295
204 198 198 212 164 193 216 224 235 196 214 222 219 216 215 217 213 210 209 208 205 205 210 208 213 217 218 220 223 226 233 240 244 245 250 249 246 252 258 249 254 255 260 267 272 278 283 289 297
226 202 209 179 145 222 223 232 233 220 214 221 220 217 215 210 206 204 204 207 210 210 212 212 212 213 218 224 228 231 236 247 248 250 246 248 245 251 253 255 253 256 262 265 269 274 280 284 290
236 206 198 200 171 234 287 254 237 235 219 226 228 231 223 220 210 203 202 209 212 213 215 216 215 217 221 224 229 233 234 243 240 238 241 252 253 254 255 258 253 258 258 268 271 272 276 280 282
199 216 226 154 172 213 191 258 209 217 221 222 227 225 227 223 225 213 216 214 219 222 221 222 222 225 226 229 228 232 239 237 244 245 253 256 255 256 257 260 260 262 263 263 265 265 271 275 279
206 156 162 187 209 299 191 244 253 227 215 215 218 224 226 225 220 218 212 226 223 227 228 229 229 227 227 230 236 234 240 247 245 253 250 252 250 250 255 258 258 262 267 271 270 271 264 269 274
144 128 124 145 193 241 226 212 236 194 220 225 220 221 225 224 223 218 219 222 225 224 230 232 232 231 231 231 235 235 236 241 238 242 240 250 254 257 255 254 257 262 262 265 265 265 263 265 269
207 159 141 186 201 232 7 217 245 247 216 231 231 227 225 225 224 216 221 223 227 230 234 234 234 232 231 233 235 237 240 239 240 239 243 250 251 253 255 257 255 258 259 259 259 257 261 263 266
220 190 164 177 190 188 110 224 241 240 242 237 237 267 239 214 225 223 230 237 241 241 238 235 232 231 232 237 238 238 242 239 237 240 243 248 252 252 257 254 254 254 257 256 258 257 259 262 262
211 216 112 96 35 148 196 237 278 251 226 224 209 204 204 208 220 222 221 223 227 229 227 227 226 223 227 231 233 236 237 237 239 243 246 250 254 256 256 255 251 251 253 258 256 259 260 262 261
221 194 172 205 158 210 189 250 234 204 189 198 201 210 215 205 210 208 204 204 206 209 210 210 213 218 222 226 229 233 236 240 242 244 248 253 257 256 256 251 248 250 248 251 256 257 256 255 254
219 196 212 202 209 211 165 224 170 203 159 186 187 198 205 200 202 199 197 196 194 190 184 188 195 199 205 211 218 221 227 232 239 247 251 252 251 255 254 253 251 250 252 254 249 254 250 249 258
224 210 201 193 189 23 33 253 159 212 221 202 192 176 189 183 177 180 187 183 180 181 182 184 188 193 201 207 215 221 225 229 234 238 245 247 251 252 250 251 254 254 243 241 242 243 255 248 257
Wind_Speed_850mb
17 21 21 9 12 8 8 8 6 12 13 9 12 7 18 22 17 11 32 24 30 25 20 20 15 21 18 14 15 18 20 20 19 19 23 24 25 23 21 17 15 19 22 25 25 23 21 21 20
13 16 11 11 11 12 13 16 16 13 15 13 7 3 4 20 15 31 29 31 28 25 22 23 22 24 20 16 18 19 22 24 27 31 27 21 23 23 20 14 13 20 25 28 29 28 28 27 25
10 10 12 8 9 8 7 14 21 16 16 17 6 6 6 9 23 31 27 36 30 26 23 26 26 24 22 22 24 23 27 30 32 31 30 27 23 18 17 15 16 23 26 28 29 29 29 28 26
7 9 9 13 8 7 9 14 24 23 10 10 3 12 12 11 27 18 41 36 32 28 25 27 25 23 21 21 24 24 25 26 23 21 23 24 25 20 16 13 11 22 25 25 26 27 28 27 27
9 10 11 11 9 4 5 5 21 20 17 18 10 12 12 24 15 35 37 34 33 30 28 27 24 22 21 21 22 23 29 29 27 26 22 22 19 16 14 17 16 19 24 23 25 26 28 28 28
20 10 9 17 15 8 7 15 24 20 18 14 11 15 15 23 29 37 36 33 31 31 29 27 24 23 21 21 22 25 26 25 24 25 23 22 17 16 12 18 19 20 21 21 23 24 26 27 26
24 17 24 19 13 12 9 15 25 24 17 15 6 14 12 30 36 37 34 30 30 26 29 27 26 24 23 22 20 22 23 22 20 18 16 17 16 13 14 17 17 19 19 20 20 20 22 24 24
19 12 28 20 19 14 15 21 19 26 17 11 11 10 12 41 46 42 34 31 29 27 27 25 24 23 22 23 21 19 19 17 17 15 13 12 11 7 6 8 14 16 15 16 16 16 18 20 21
18 13 21 27 23 11 15 20 16 15 9 15 14 1 12 46 50 44 37 34 32 38 33 30 24 22 20 21 21 19 16 15 13 13 12 10 9 9 4 4 9 11 11 12 13 13 14 15 17
22 22 27 16 18 9 16 22 25 16 22 20 17 11 31 43 54 49 46 44 45 43 42 32 29 25 23 20 19 18 16 13 11 10 10 8 7 5 4 4 5 5 6 7 9 10 10 13 11
13 26 18 20 14 9 13 19 19 22 23 27 33 29 38 45 53 49 46 42 44 39 43 42 37 27 26 24 22 18 18 15 12 9 8 6 5 4 2 3 2 2 2 4 5 7 7 6 6
17 29 20 16 18 13 16 11 21 32 15 13 20 35 40 46 54 51 46 41 41 42 42 43 40 37 30 28 24 19 19 17 14 12 10 8 6 5 3 1 2 3 3 3 4 4 5 6 5
11 18 20 13 18 15 8 22 29 36 40 15 19 37 41 40 44 44 43 40 40 41 44 46 44 40 36 31 28 24 22 21 19 17 14 12 10 9 8 6 5 4 6 7 7 7 8 9 9
24 18 20 18 20 15 13 20 8 29 33 23 27 36 37 39 43 42 45 47 44 42 42 44 46 42 40 36 33 29 26 24 24 22 20 18 16 13 12 12 10 9 7 8 9 10 11 13 14
13 20 15 20 25 14 19 20 24 32 30 36 34 35 36 37 40 47 45 47 47 45 43 47 47 45 40 39 38 36 33 30 28 27 26 25 22 21 19 17 16 16 13 12 12 12 13 15 16
16 17 17 25 29 14 20 29 40 38 34 43 40 39 40 40 43 42 42 44 45 44 47 50 49 49 45 41 39 40 39 36 33 32 32 31 29 29 27 24 21 22 19 16 14 16 17 18 18
26 21 29 21 35 13 25 21 39 31 39 40 44 43 40 37 40 42 43 43 46 48 51 52 53 52 48 44 41 40 42 41 40 37 38 36 35 34 33 29 24 26 26 21 22 23 23 22 24
28 13 36 34 26 26 26 32 13 22 36 44 41 40 40 40 43 43 44 43 43 46 49 53 54 51 50 48 44 42 43 42 43 43 44 39 40 37 34 33 28 30 31 28 24 24 24 24 26
28 40 33 30 18 27 35 32 34 23 29 37 43 43 42 44 39 41 46 45 43 46 50 51 53 52 50 51 50 48 47 44 40 38 38 35 38 37 37 38 35 34 33 32 30 30 29 29 27
38 37 34 9 14 20 25 36 34 33 30 41 43 44 46 42 44 47 48 53 53 50 53 54 50 47 53 52 51 46 45 43 40 38 36 34 33 35 37 35 35 34 35 37 35 35 37 36 34
20 41 30 19 17 16 9 28 33 37 36 35 37 43 46 48 51 48 50 53 55 58 57 58 55 53 54 54 49 47 44 41 39 41 41 39 36 38 36 32 35 35 38 41 40 40 40 41 43
33 16 18 22 24 14 24 12 28 42 44 36 50 51 51 48 43 42 49 56 59 60 60 58 56 55 55 55 57 53 55 53 49 43 42 43 37 38 39 40 40 41 43 45 43 41 42 43 45
19 22 14 25 21 6 16 11 24 21 43 46 51 56 57 53 48 48 48 50 54 54 59 58 57 58 56 58 58 58 55 52 40 36 38 39 38 38 38 42 43 42 39 39 39 41 41 45 47
26 36 24 11 8 14 30 24 18 20 37 38 49 63 64 59 52 46 40 48 53 57 58 59 60 60 60 59 58 58 53 52 47 46 48 51 48 47 47 47 46 45 46 44 40 43 45 43 45
23 39 11 11 13 15 4 26 27 15 27 32 33 59 63 59 55 46 53 56 52 54 55 58 64 66 65 62 61 61 61 61 59 58 55 55 54 51 53 48 50 52 51 48 48 47 48 47 47
42 35 14 15 13 14 2 16 12 31 44 35 24 15 21 34 34 46 54 54 55 58 60 61 65 65 66 65 62 57 56 59 61 61 57 55 54 50 51 50 52 54 57 55 53 51 48 49 46
37 40 10 12 5 4 13 15 17 21 21 21 27 22 17 20 30 34 34 36 41 45 52 58 61 59 57 54 52 54 55 56 59 58 56 55 55 53 51 47 52 55 56 58 51 49 47 48 46
29 25 13 7 14 11 11 9 15 17 16 16 20 29 33 28 23 21 26 32 34 37 41 42 43 45 49 49 48 47 44 44 46 47 47 46 46 49 46 41 46 47 46 50 52 53 46 46 41
26 30 17 16 5 5 8 8 6 8 10 18 17 24 32 36 31 27 28 29 29 29 30 32 36 36 35 34 33 33 34 35 36 38 40 42 45 48 46 47 43 45 49 47 46 39 40 43 43
39 38 33 12 9 1 1 4 5 5 8 15 15 10 16 27 27 25 28 31 34 34 34 33 31 31 32 30 30 30 29 28 29 31 32 33 33 34 34 35 37 34 29 34 40 39 40 41 42
Wind_Direction_850mb
329 338 336 304 251 254 127 142 85 128 141 73 98 309 50 27 6 69 139 137 135 137 126 109 111 120 111 102 110 135 142 139 121 96 94 97 102 100 95 83 81 91 86 80 74 70 68 67 67
325 334 315 281 264 224 131 132 149 143 81 131 112 142 90 76 64 128 135 143 139 133 131 117 117 118 107 83 98 118 132 132 123 108 103 92 93 98 96 89 76 86 83 78 72 70 72 73 74
307 326 285 295 265 285 110 172 135 125 138 156 137 15 39 69 117 131 155 145 138 135 134 125 126 125 109 93 90 106 122 133 135 131 122 110 101 103 113 100 79 90 88 78 73 71 70 69 71
284 238 231 250 235 69 17 161 140 142 161 174 251 115 91 100 136 146 146 146 142 139 135 129 133 127 118 102 99 104 108 133 138 135 133 127 118 111 103 105 101 85 87 84 76 70 66 68 75
243 251 254 240 218 151 143 160 160 172 160 171 187 121 106 135 141 145 149 148 146 145 142 135 136 130 121 110 101 106 110 112 113 121 136 142 133 120 100 108 109 95 85 79 73 67 62 67 74
224 245 228 237 195 152 171 179 183 184 165 153 194 143 128 157 150 153 156 155 151 155 148 142 141 138 127 116 108 103 108 109 105 97 101 123 145 118 90 105 107 96 91 79 70 64 60 66 70
239 217 226 227 238 193 188 188 195 188 184 183 148 171 140 169 169 158 159 160 155 167 153 151 148 147 138 130 122 112 114 114 108 105 99 94 97 115 98 95 111 101 90 78 70 67 63 64 66
243 256 239 219 207 213 151 180 204 200 181 131 172 184 178 178 175 158 163 163 164 172 160 155 159 154 150 144 139 129 124 117 110 108 104 100 97 96 93 97 106 98 88 79 71 68 65 65 63
203 231 223 219 225 198 162 187 192 196 168 188 188 99 114 174 176 162 170 168 172 181 170 167 168 162 164 160 153 149 138 131 125 118 113 106 92 94 110 95 88 89 80 71 65 61 62 64 62
212 222 225 220 218 200 182 207 176 186 190 199 185 162 155 179 180 174 177 178 191 186 178 180 169 174 174 173 167 163 158 154 146 136 125 123 130 127 70 67 71 72 61 54 48 51 53 51 47
209 231 220 198 206 185 194 207 190 210 205 208 201 176 169 178 185 186 186 191 193 192 192 188 181 186 184 183 177 183 179 179 173 169 156 151 158 144 72 62 70 67 8 10 15 26 34 35 39
216 234 198 179 178 173 193 205 205 212 205 207 207 188 178 189 193 193 193 193 191 197 203 200 197 192 192 197 187 196 196 195 196 196 195 186 191 187 193 251 315 329 335 314 310 320 334 353 356
236 190 208 181 176 196 193 217 223 216 222 224 185 182 190 196 198 198 198 198 197 199 203 208 206 205 208 207 200 205 206 208 212 217 216 219 217 218 223 238 259 281 298 303 303 299 303 313 322
216 195 194 188 187 183 209 230 220 228 223 206 184 192 197 198 198 198 202 202 203 201 205 211 211 212 213 216 215 217 217 218 226 230 231 230 235 239 242 246 252 258 271 281 286 293 302 311 312
241 196 200 189 205 208 198 228 229 234 208 203 198 196 199 203 201 204 207 207 204 204 204 212 215 213 221 222 224 224 228 230 231 238 239 241 243 250 252 257 261 263 264 274 286 293 301 306 309
222 208 195 207 198 198 185 244 226 226 200 205 202 200 201 203 207 207 207 210 207 206 205 213 215 217 221 227 232 233 235 237 241 242 245 246 247 249 251 253 258 261 262 267 282 299 305 306 305
211 197 201 169 201 162 199 237 239 216 207 215 207 203 206 208 209 208 208 209 204 208 206 212 217 219 223 225 232 239 237 239 242 245 249 252 254 250 249 250 253 267 268 272 277 284 292 292 296
186 214 199 207 193 201 194 231 182 202 213 218 209 208 211 214 214 209 207 206 206 206 209 212 218 220 224 225 227 230 239 240 241 244 249 250 251 253 252 248 258 262 261 268 275 281 285 291 295
204 198 198 212 164 193 216 224 235 196 214 222 219 216 215 217 213 210 209 208 205 205 210 208 213 217 218 220 223 226 233 240 244 245 250 249 246 252 258 249 254 255 260 267 272 278 283 289 297
226 202 209 179 145 222 223 232 233 220 214 221 220 217 215 210 206 204 204 207 210 210 212 212 212 213 218 224 228 231 236 247 248 250 246 248 245 251 253 255 253 256 262 265 269 274 280 284 290
236 206 198 200 171 234 287 254 237 235 219 226 228 231 223 220 210 203 202 209 212 213 215 216 215 217 221 224 229 233 234 243 240 238 241 252 253 254 255 258 253 258 258 268 271 272 276 280 282
199 216 226 154 172 213 191 258 209 217 221 222 227 225 227 223 225 213 216 214 219 222 221 222 222 225 226 229 228 232 239 237 244 245 253 256 255 256 257 260 260 262 263 263 265 265 271 275 279
206 156 162 187 209 299 191 244 253 227 215 215 218 224 226 225 220 218 212 226 223 227 228 229 229 227 227 230 236 234 240 247 245 253 250 252 250 250 255 258 258 262 267 271 270 271 264 269 274
144 128 124 145 193 241 226 212 236 194 220 225 220 221 225 224 223 218 219 222 225 224 230 232 232 231 231 231 235 235 236 241 238 242 240 250 254 257 255 254 257 262 262 265 265 265 263 265 269
207 159 141 186 201 232 7 217 245 247 216 231 231 227 225 225 224 216 221 223 227 230 234 234 234 232 231 233 235 237 240 239 240 239 243 250 251 253 255 257 255 258 259 259 259 257 261 263 266
220 190 164 177 190 188 110 224 241 240 242 237 237 267 239 214 225 223 230 237 241 241 238 235 232 231 232 237 238 238 242 239 237 240 243 248 252 252 257 254 254 254 257 256 258 257 259 262 262
211 216 112 96 35 148 196 237 278 251 226 224 209 204 204 208 220 222 221 223 227 229 227 227 226 223 227 231 233 236 237 237 239 243 246 250 254 256 256 255 251 251 253 258 256 259 260 262 261
221 194 172 205 158 210 189 250 234 204 189 198 201 210 215 205 210 208 204 204 206 209 210 210 213 218 222 226 229 233 236 240 242 244 248 253 257 256 256 251 248 250 248 251 256 257 256 255 254
219 196 212 202 209 211 165 224 170 203 159 186 187 198 205 200 202 199 197 196 194 190 184 188 195 199 205 211 218 221 227 232 239 247 251 252 251 255 254 253 251 250 252 254 249 254 250 249 258
224 210 201 193 189 23 33 253 159 212 221 202 192 176 189 183 177 180 187 183 180 181 182 184 188 193 201 207 215 221 225 229 234 238 245 247 251 252 250 251 254 254 243 241 242 243 255 248 257